Regional Weather Roundup
Issued by NWS Green Bay, WI

Home | Current Version | Previous Version | Text Only | Print | Product List | Glossary On
Versions: 1 2 3 4 5 6 7 8 9 10 11 12 13 14 15 16 17 18 19 20 21 22 23 24 25 26 27 28 29 30 31 32 33 34 35 36 37 38 39 40 41 42 43 44 45 46 47 48 49 50
000
ASUS43 KGRB 040600
RWRGRB

NORTH-CENTRAL AND NORTHEAST WISCONSIN REGIONAL WEATHER ROUNDUP
NATIONAL WEATHER SERVICE GREEN BAY WI
100 AM CDT SAT JUL 04 2015

WIZ005-009-010>012-018-019-040700-
NORTH CENTRAL WISCONSIN

CITY           SKY/WX    TMP DP  RH WIND       PRES   REMARKS
IRONWOOD       MOCLDY    57  55  94 CALM      29.90R VSB 1/2
MANITOWISH WTR NOT AVBL
ARBOR VITAE    NOT AVBL
EAGLE RIVER    NOT AVBL
LAND O LAKES   NOT AVBL
RHINELANDER    PTCLDY    58  56  93 W5        29.94F
PHILLIPS       NOT AVBL
ANTIGO         NOT AVBL
TOMAHAWK       NOT AVBL
MERRILL        NOT AVBL
$$

WIZ013-073-040700-
NORTHEAST WISCONSIN

CITY           SKY/WX    TMP DP  RH WIND       PRES   REMARKS
IRON MOUNTAIN  PTCLDY    58  55  90 CALM      29.90R
MARINETTE      CLEAR     63  54  72 CALM      29.88S
$$

WIZ017-030-035>037-045-040700-
CENTRAL WISCONSIN

CITY           SKY/WX    TMP DP  RH WIND       PRES   REMARKS
MEDFORD        NOT AVBL
WAUSAU         MOCLDY    64  58  80 W6        29.92R
MOSINEE        NOT AVBL
MARSHFIELD     PTCLDY    61  55  81 SW3       29.93S
WISC RAPIDS    PTCLDY    58  55  90 CALM      29.94S
STEVENS POINT  NOT AVBL
WAUPACA        NOT AVBL
SHAWANO        NOT AVBL
CLINTONVILLE   NOT AVBL
$$

WIZ038-039-048-051-040700-
FOX VALLEY

CITY           SKY/WX    TMP DP  RH WIND       PRES   REMARKS
NWS GREEN BAY  MOCLDY    63  58  83 CALM      29.91S
APPLETON       NOT AVBL
OSHKOSH        PTCLDY    65  56  72 VRB3      29.92S
FOND DU LAC    PTCLDY    63  56  78 SW5       29.93S
$$

WIZ022-050-052-040700-
EAST CENTRAL WISCONSIN

CITY           SKY/WX    TMP DP  RH WIND       PRES   REMARKS
STURGEON BAY   CLEAR     61  52  72 S6        29.92S
MANITOWOC      NOT AVBL
SHEBOYGAN      MOCLDY    59  53  80 SW5       29.93S
$$

LMZ563-521-522-541>543-040700-
LAKESHORE

STATION/POSITION TIME  TEMP    WIND        PRES    VSBY  WAVE
                       AIR SEA DIR/SP/G                  HT/PER
                 (UTC) (F)     (DEG/KT/KT) (MB)    (MI)  (FT/S)
SHEBOYGAN LKSHOR 0500   62     210/  9/  9 1013.7R
KEWAUNEE LKSHORE 0500   64     350/  1/  3 1012.1S
ALGOMA MARINA    0525             CALM       N/A
NORTHPORT PIER   0500   64     210/  2/  6 1011.9S
N MID LAKE BUOY  0450   49 43  200/ 10/ 10 1012.3R         2/ 4
S GREEN BAY BUOY 0500   70 69  210/  8/ 10 1013.7
SISTER BAY LKSHO 0514   69     220/  8/  9   N/A
CHAMBERS ISLAND  0500   66     180/  4/  8 1011.9F
MENOMINEE LKSHOR 0500   67     200/  7/  8 1012.6S
$$



USA.gov is the U.S. government's official web portal to all federal, state and local government web resources and services.